Regional Weather Roundup
Issued by NWS

Home | Current Version | Previous Version | Graphics & Text | Print | Product List | Glossary On
Versions: 1 2 3 4 5 6 7 8 9 10 11 12 13 14 15 16 17 18 19 20 21 22 23 24 25 26 27 28 29 30 31 32 33 34 35 36 37 38 39 40 41 42 43 44 45 46 47 48 49 50
000
ASUS45 KCYS 270310
RWRWY

WYOMING REGIONAL WEATHER ROUNDUP
NATIONAL WEATHER SERVICE CHEYENNE WY
900 PM MDT SUN JUL 26 2015

NOTE:  "FAIR" INDICATES FEW OR NO CLOUDS BELOW 12,000 FEET
WITH NO SIGNIFICANT WEATHER AND/OR OBSTRUCTIONS TO VISIBILITY.

WYZ001-270400-
YELLOWSTONE NATIONAL PARK

CITY           SKY/WX    TMP DP  RH WIND       PRES   REMARKS
LK YELLOWSTONE   N/A     61  35  37 CALM      30.13F
W YELLOWSTONE  NOT AVBL

$$
WYZ002>013-054>058-071-098>099-270400-
NORTHERN WYOMING

CITY           SKY/WX    TMP DP  RH WIND       PRES   REMARKS
JACKSON        FAIR      70  45  40 E3        30.00S
CODY           FAIR      79  39  24 CALM      29.88R
GREYBULL       FAIR      88  37  16 NW14      29.74S
WORLAND        FAIR      85  34  16 N6        29.76R
SHERIDAN       FAIR      74  47  38 W10       29.82S
BUFFALO        FAIR      76  45  33 NW13      29.89R
GILLETTE       FAIR      72  47  40 SE3       29.83F
HULETT         FAIR      73  61  64 E8        29.86S
NEWCASTLE      FAIR      79  43  27 E6        29.86R

$$
WYZ014>020-022>026-101>103-270400-
CENTRAL WYOMING

CITY           SKY/WX    TMP DP  RH WIND       PRES   REMARKS
BIG PINEY      FAIR      64  31  28 N8        30.07R
PINEDALE       FAIR      64  27  24 W7        30.08S
DUBOIS         FAIR      66  28  24 W9        30.05S
LANDER         FAIR      77  24  14 SW15      29.89R
RIVERTON       FAIR      81  22  11 W10       29.89S
CASPER         FAIR      76  28  17 S6        29.90S
DOUGLAS        FAIR      79  54  41 SE16G29   29.92R

$$
WYZ021-027>030-104>119-270400-
SOUTHERN WYOMING

CITY           SKY/WX    TMP DP  RH WIND       PRES   REMARKS
EVANSTON       FAIR      73  25  16 W8        30.06S
KEMMERER       FAIR     N/A N/A N/A NW9       30.08S
FORT BRIDGER   CLEAR     75  34  22 S13       30.10R
ROCK SPRINGS   FAIR      79  29  16 S25       30.05R
DIXON          FAIR      78  37  22 S15G21    30.08R
RAWLINS        FAIR      70  25  18 S8        30.05S
SARATOGA       FAIR      73  32  21 S10       30.09S
LARAMIE        FAIR      69  52  54 SE16      30.11R
CHEYENNE       FAIR      68  53  58 SE16      30.09R
TORRINGTON     FAIR      73  55  53 SE12      29.92R
PINE BLUFFS    FAIR      66  54  63 SE14      30.03R

$$



USA.gov is the U.S. government's official web portal to all federal, state and local government web resources and services.